PEGASUS DEB, 39321

Orbit data source: Space-Track

PEGASUS DEB, 39321 is space debris in LEO originally from a launch on Thu, 19 May 1994 UTC launched from the Air Force Western Test Range (AFWTR). Debris objects in space refer to the collection of defunct objects orbiting the Earth. Examples of debris include non-operational satellites, rocket bodies, and fragments generated from explosions, collisions, or faulty payload assembly.

Loading next visibility...
Identifier
39321, 1994-029AFG
Orbit
LEO
Country
Flag of USUS
Related business
Manufacturer
Unknown
Mission
Spacecraft
Bus & Motor
Unknown
Mass
Unknown
Launch date (UTC)
1994-05-19 (32 years ago)
Launch vehicle
Unknown
Launch site
Air Force Western Test Range (AFWTR)
Object type
Payload
Rocket body
Debris
Shape & HBR
Unknown shape, 0.1 m
Radar Cross Section
Small (<0.1 m²)

Expand to show TLE details & history
Last TLE update: 2 days ago

TLE from 2 days ago
0 PEGASUS DEB
1 39321U 94029AFG 26060.79965121  .00001902  00000-0  64451-3 0  9991
2 39321  82.2829 242.4440 0434535 115.1353 249.5546 13.94024499639282
Epoch: 2026-03-01T19:11Z
TLE epoch observation values (Epoch: 2026-03-01T19:11:29.864Z)
Latitude
-0.00002°
Longitude
154.96734°
Altitude
1,040.01 km
Speed
7.27 km/s
True Right ascension
16h 09m 46s
True Declination
0° 00' 00"
Sunlit
Object was in daylight at epoch
Visualization orbit readout
Latitude
Unknown
Longitude
Unknown
Altitude
Unknown
Speed
Unknown
Apparent Right ascension
Unknown
Apparent Declination
Unknown
Sunlit
N/A
Visualization observer readout
Local Sidereal Time
22:05:17
Azimuth
Unknown
Elevation
Unknown
Doppler factor
Unknown
Orbital elements
Apogee altitude
1,228.471 km
Perigee altitude
594.933 km
Semi-major axis
7,289.839 km
Eccentricity
0.04345
Inclination
82.2829°
RAAN
242.444°
Arg. of periapsis
115.1353°
True anomaly
244.98066°
Mean anomaly
249.5546°
Eccentric anomaly
247.25845°
Mean motion
3.48711 °/min
Orbital period
103.24 mins
BSTAR
0.00064451
Loading maneuver chart data...
Computing Atmospheric mass density...
Loading historical data...
Loading historical data...
Loading historical data...
Loading historical data...
Loading historical data...
Loading historical data...
Loading historical data...

Documentation

Showing up to 5 results
|